SCP
0 0 0 0 0 0 0 0 0 0 0 0 0 0 0 0 0 0 0 0 0 0 0 0 0 0 0 0 0 0 0 0 0 0 0 0 0 0 0 0 0 0 0 0
0 0 0 0 0 0 0 0 0 0 0 0 0 0 0 0 0 0 0 0 0 0 0 0 0 0 0 0 0 0 0 0 0 0 0 0 0 0 0 0 0 0 0 0
0 0 0 0 0 0 0 0 0 0 0 0 0 0 0 0 0 0 0 0 0 0 0 0 0 0 0 0 0 0 0 0 0 0 0 0 0 0 0 0 0 0 0 0
0 0 0 0 0 0 0 0 0 0 0 0 0 -0 0 0 0 0 0 0 0 0 0 0 0 0 0 0 0 0 0 0 0 0 0 0 0 0 0 0 0 0 0 0
0 0 0 0 0 0 0 0 0 0 0 0 0 0 0 0 0 0 0 0 0 0 0 0 0 0 0 0 0 0 0 0 0 0 0 0 0 0 0 0 0 0 0 0
0 0 0 0 0 0 0 0 0 0 0 0 0 0 -0 0 0 0 0 0 0 0 0 0 0 0 0 0 0 0 0 0 0 0 0 0 0 0 0 0 0 0 0 0
0 0 0 0 0 0 0 0 0 0 0 0 0 0 0 0 0 0 0 0 0 0 0 0 0 0 0 0 0 0 0 0 0 0 0 0 0 0 0 0 0 0 0 0
0 0 0 0 0 0 0 0 0 0 0 0 0 0 0 0 0 0 0 0 0 0 0 0 0 0 0 0 0 0 0 0 0 0 0 0 0 0 0 0 0 0 0 0
0 0 0 0 0 0 0 0 0 0 0 0 0 0 0 0 0 0 0 0 0 0 0 0 0 0 0 0 0 0 0 0 0 0 0 0 0 0 0 0 0 0 0 0
0 0 0 0 0 0 0 0 0 0 0 0 0 0 0 0 -0 0 0 0 -0 0 0 0 0 0 0 0 0 0 0 0 0 0 0 0 0 0 0 0 0 0 0 0
0 0 0 0 0 0 0 0 0 0 0 0 0 0 0 0 0 0 0 0 0 0 0 0 0 0 0 0 0 0 0 0 0 0 0 0 0 0 0 0 0 0 0 0
0 0 0 0 0 0 0 0 0 0 0 0 0 0 0 0 0 -0 -0 -0 -0 -0 0 0 0 0 0 0 0 0 0 0 0 0 0 0 0 0 0 0 0 0 0 0
0 0 0 0 0 0 0 0 0 0 0 0 0 0 0 0 0 0 0 -0 -0 -0 -0 0 0 0 0 0 0 0 0 0 0 0 0 0 0 0 0 0 0 0 0 0
0 0 0 0 0 0 0 0 0 0 0 0 0 0 0 0 0 -0 -0 -0 -0 -0 -0 0 0 0 0 0 0 0 0 0 0 0 0 0 0 0 0 0 0 0 0 0
0 0 0 0 0 0 0 0 0 0 0 0 0 0 0 0 0 0 0 0 0 0 0 0 0 0 0 0 0 0 0 0 0 0 0 0 0 0 0 0 0 0 0 0
0 0 0 0 0 0 0 0 0 0 0 0 0 -0 0 0 0 0 0 0 0 0 0 0 0 0 0 0 0 0 0 0 0 0 0 0 0 0 0 0 0 0 0 0
0 0 0 0 0 0 0 0 0 0 0 0 0 0 0 0 0 0 0 0 0 0 0 0 0 0 0 0 0 0 0 0 0 0 0 0 0 0 0 0 0 0 0 0
0 0 0 0 0 0 0 0 0 0 0 0 0 0 0 0 0 0 0 0 0 0 0 0 0 0 0 0 0 0 0 0 0 0 0 0 0 0 0 0 0 0 0 0
0 0 0 0 0 0 0 0 0 0 0 0 0 0 0 0 0 -0 0 0 0 0 0 0 0 0 0 0 0 0 0 0 0 0 0 0 0 0 0 0 0 0 0 0
0 0 0 0 0 0 0 0 0 0 0 -0 -0 0 0 0 0 0 0 0 0 0 0 0 0 0 0 0 0 0 0 0 0 0 0 0 0 0 0 0 0 0 0 0
0 0 0 0 0 0 0 0 0 0 0 0 0 0 0 0 0 0 0 0 0 0 0 0 0 0 0 0 0 0 0 0 0 0 0 0 0 0 0 0 0 0 0 0
0 0 0 0 0 0 0 0 0 0 0 0 0 0 -0 -0 0 0 0 0 0 0 0 0 0 0 0 0 0 0 0 0 0 0 0 0 0 0 0 0 0 0 0 0
0 0 0 0 0 0 0 0 0 0 0 0 0 0 0 0 0 0 0 0 0 0 0 0 0 0 0 0 0 0 0 0 0 0 0 0 0 0 0 0 0 0 0 0
0 0 0 0 0 0 0 0 0 0 0 0 0 0 0 0 0 0 0 0 0 0 0 0 0 0 0 0 0 0 0 0 0 0 0 0 0 0 0 0 0 0 0 0
0 0 0 0 0 0 0 0 0 0 0 0 0 0 0 0 0 0 0 0 0 0 0 0 0 0 0 0 0 0 0 0 0 0 0 0 0 0 0 0 0 0 0 0
0 0 0 0 0 0 0 0 0 -0 0 0 0 0 0 0 0 0 0 0 0 0 0 0 0 0 0 0 0 0 0 0 0 0 0 0 0 0 0 0 0 0 0 0
Wind_Speed_500mb
25 20 30 37 37 38 38 31 33 24 8 12 34 41 40 42 36 41 49 53 55 58 53 54 57 59 59 57 56 54 51 48 46 43 39 36 33 30 27 25 23 22 22 22
11 32 30 14 18 30 32 37 40 36 11 10 33 48 43 41 48 58 58 57 62 56 59 63 68 72 70 66 62 59 55 53 50 46 43 39 36 33 30 27 25 24 23 23
28 3 10 8 19 22 33 36 36 35 10 26 30 47 47 43 61 65 64 66 62 70 73 75 84 85 77 75 71 65 61 57 54 51 49 44 41 35 34 32 29 28 27 27
23 4 9 11 22 24 29 19 24 30 13 17 8 26 32 28 21 30 55 63 73 77 80 82 91 89 87 82 73 69 65 60 59 57 52 47 42 40 37 35 34 32 32 31
7 9 14 21 11 17 3 6 9 20 24 26 32 16 15 23 31 36 39 65 73 75 77 83 93 92 87 81 80 74 69 65 64 60 56 51 46 41 41 40 38 36 35 33
4 1 5 3 5 1 6 4 5 7 12 15 31 30 38 29 28 31 29 51 64 67 71 72 75 80 84 83 81 78 75 70 69 66 63 57 52 50 46 43 42 40 38 36
10 14 8 5 8 5 14 11 7 9 10 16 1 22 37 21 36 18 22 28 32 53 66 72 77 85 86 89 88 83 80 77 74 72 68 62 57 50 47 45 45 44 43 40
14 11 19 18 6 8 26 13 10 14 17 20 5 17 13 17 32 31 28 24 24 39 61 72 80 90 93 94 91 88 86 81 79 77 73 66 59 55 51 48 47 45 43 42
13 7 7 3 2 4 14 15 5 10 4 10 18 32 17 28 30 25 28 17 24 29 46 62 67 78 88 95 93 92 88 83 80 79 75 71 65 61 57 51 49 45 43 43
1 5 1 7 3 5 5 5 7 8 9 15 17 16 20 24 26 13 16 16 25 31 41 58 67 73 82 89 91 88 86 85 81 77 76 73 68 63 57 53 51 47 45 42
2 1 8 4 18 19 10 9 9 5 9 10 17 12 6 10 11 18 22 30 32 24 31 46 58 64 71 83 88 90 88 84 81 76 75 73 69 65 62 57 53 52 49 45
9 2 8 11 7 5 5 11 19 10 12 12 12 21 21 25 8 9 16 14 23 13 16 31 49 60 68 77 86 92 89 83 79 74 75 75 71 68 66 64 57 55 52 48
17 7 7 8 3 2 10 15 16 16 7 28 17 15 5 3 10 13 9 16 20 21 9 25 38 56 68 77 85 89 89 84 79 75 75 75 74 70 69 65 60 58 55 51
14 9 13 20 8 7 8 13 25 20 15 24 42 49 43 41 41 43 61 68 44 16 17 29 42 51 60 72 79 86 86 84 82 79 74 73 74 71 68 64 61 58 55 51
4 10 8 20 25 11 14 16 21 31 40 27 43 50 37 29 27 37 51 59 44 33 32 38 50 58 60 69 77 80 83 87 86 80 75 72 71 68 64 63 61 57 54 51
3 14 5 10 23 24 29 31 27 43 43 49 49 71 45 59 69 67 74 71 60 51 48 46 50 65 74 75 78 79 81 82 83 81 77 73 67 64 63 61 58 56 54 52
13 11 8 13 4 16 29 40 48 43 37 46 45 69 40 46 46 54 65 59 53 56 53 52 55 64 73 78 80 82 83 82 81 80 76 72 66 63 62 58 55 54 53 52
12 17 9 5 4 17 2 4 15 40 43 40 52 58 52 55 76 70 58 51 57 62 60 58 49 53 65 74 72 77 77 80 79 79 75 71 67 63 60 57 55 55 54 50
21 18 8 10 19 25 33 20 15 16 22 37 45 49 45 58 49 56 53 44 47 49 48 43 38 45 53 63 63 68 70 70 71 73 72 69 67 65 63 61 57 54 50 47
7 17 16 11 12 18 5 6 16 9 16 25 24 34 31 15 12 17 22 24 23 23 16 20 29 38 43 54 61 67 70 71 71 71 68 65 63 61 60 58 56 51 46 43
11 10 30 31 24 18 11 14 15 6 9 2 1 8 18 11 12 21 25 22 18 11 6 13 21 31 37 49 60 67 68 67 65 63 60 58 56 57 56 55 50 47 44 40
22 25 15 19 15 35 22 16 18 5 4 7 8 20 15 19 26 23 22 15 10 5 7 14 23 31 39 45 52 58 59 57 56 55 54 55 55 54 53 50 48 43 40 37
12 19 12 22 16 3 22 32 40 24 23 23 21 26 31 27 22 18 15 11 8 8 12 19 26 31 34 37 42 52 51 51 54 55 58 58 57 55 52 49 48 44 38 32
12 12 10 7 27 32 36 42 48 49 58 54 49 38 34 28 25 19 17 13 12 15 20 26 33 40 43 43 46 44 53 54 56 60 60 59 57 57 52 48 42 37 32 26
19 15 16 22 35 31 59 50 47 53 63 69 72 54 36 31 27 22 20 20 21 25 32 38 44 50 55 54 52 53 55 57 61 62 63 61 57 52 49 43 36 28 21 13
32 30 22 23 25 18 40 45 52 44 48 57 55 51 36 32 29 28 25 27 31 37 44 49 51 54 61 60 62 62 59 55 59 64 62 58 55 50 42 34 30 21 11 2
Wind_Direction_500mb
200 216 218 225 228 250 274 278 267 273 117 255 241 254 258 249 216 229 229 222 218 215 208 204 204 205 207 207 209 209 207 205 202 198 195 193 191 188 184 177 171 166 162 158
191 231 239 243 282 244 254 256 261 270 167 222 275 270 265 257 243 229 230 224 220 215 208 205 208 210 210 209 209 208 207 207 202 199 194 193 192 187 185 178 174 169 163 158
229 120 62 203 231 236 242 250 259 264 277 238 276 275 258 249 238 238 230 231 223 213 205 202 210 211 210 210 210 209 208 207 203 200 198 195 193 191 186 181 178 172 167 162
244 145 178 199 234 226 253 258 257 264 256 263 169 290 285 293 237 227 228 226 223 213 209 205 210 207 210 211 210 210 209 207 204 203 200 198 197 193 190 188 183 178 176 169
188 192 200 225 241 188 270 12 250 262 258 276 255 263 284 258 256 239 228 227 223 217 208 202 212 213 211 209 210 209 209 207 206 204 201 197 196 195 196 193 187 184 182 176
315 41 246 46 87 18 104 139 193 234 258 253 242 239 276 256 254 248 250 235 225 217 210 207 210 207 208 210 209 209 208 207 206 204 202 199 198 201 199 195 192 190 188 184
176 206 142 192 161 151 200 189 227 235 211 251 321 243 246 299 292 257 265 274 227 217 208 203 199 200 203 207 207 208 208 207 206 204 203 201 201 203 203 201 199 197 194 192
201 219 182 163 243 200 193 218 237 255 246 283 115 240 254 251 285 277 276 267 253 216 210 206 201 202 204 208 208 207 207 207 206 205 204 204 204 204 204 204 204 202 200 198
189 182 123 68 343 305 161 215 14 311 152 270 247 253 256 249 262 276 274 275 257 238 216 210 205 201 202 209 209 208 207 207 208 207 206 206 206 206 205 207 207 205 204 205
256 188 29 110 203 202 280 344 169 211 248 252 248 261 255 279 278 21 15 313 268 240 219 209 204 201 205 212 210 209 210 209 209 209 209 210 210 210 209 211 211 211 212 212
73 270 112 161 202 190 172 211 221 290 251 263 284 266 11 344 35 344 338 327 326 278 238 212 203 201 200 210 209 208 209 208 209 210 210 212 213 212 213 214 214 216 217 215
174 112 228 209 96 8 338 236 193 224 210 239 287 258 290 291 321 294 299 320 351 328 254 219 204 196 196 206 208 207 207 208 210 210 210 211 212 213 213 215 216 217 218 218
167 202 227 197 187 22 222 208 231 257 296 246 264 250 137 213 308 287 293 350 346 339 235 213 210 202 197 202 205 207 208 209 210 210 211 211 213 213 215 216 217 218 219 219
167 182 243 247 57 76 203 215 224 222 248 263 242 270 270 284 291 295 303 301 316 288 272 217 210 213 206 203 205 207 207 209 211 211 211 212 213 215 216 216 218 219 219 221
206 229 217 260 268 226 241 222 204 216 233 245 270 272 272 281 289 295 294 291 292 279 270 248 218 208 210 209 209 209 211 211 212 211 211 213 214 215 215 216 218 219 219 220
68 218 124 263 256 244 254 243 233 242 240 257 265 270 265 273 276 271 273 274 277 274 262 265 245 230 219 215 213 210 209 210 210 211 211 212 212 212 213 215 216 216 218 219
169 198 181 252 346 290 270 242 228 243 240 238 252 258 282 274 269 268 275 279 277 275 271 259 258 247 230 221 213 211 208 211 209 209 209 210 210 209 211 212 212 212 214 216
167 195 193 254 148 250 354 117 223 233 249 242 252 262 266 266 274 280 287 291 283 277 275 271 267 244 232 223 216 214 212 211 208 206 206 207 207 207 207 206 206 207 212 216
186 180 200 222 211 284 296 258 189 186 255 232 246 258 268 274 278 287 279 279 271 275 276 273 266 237 227 218 211 207 203 202 200 200 202 203 205 204 204 204 205 207 209 209
227 209 208 180 232 246 96 43 118 146 269 254 234 255 272 297 269 287 330 316 305 295 274 233 221 214 211 207 203 198 194 193 193 195 197 201 202 202 200 199 199 200 200 201
175 198 214 223 241 269 212 159 151 208 279 146 284 273 279 240 254 289 305 312 320 312 249 208 191 189 187 188 190 188 186 187 189 191 192 191 191 192 193 191 190 190 188 188
172 177 197 218 236 254 159 126 216 213 188 252 284 306 289 268 274 278 288 294 290 262 185 179 178 173 174 179 182 176 174 175 177 177 176 175 176 177 175 179 173 173 175 176
220 214 194 205 214 275 192 221 225 274 292 292 284 290 295 290 276 263 265 256 234 194 178 173 171 166 163 167 170 168 161 163 164 164 161 162 162 161 161 164 163 163 164 166
222 216 241 156 247 256 259 247 251 263 271 280 284 285 281 273 262 242 227 211 186 167 159 158 157 156 151 153 156 162 156 156 157 154 151 151 153 152 152 154 154 156 156 160
262 155 216 254 265 285 273 263 267 266 271 269 270 271 266 254 242 223 195 181 170 161 153 153 153 150 145 149 148 148 149 154 153 150 147 146 146 145 144 143 142 145 146 156
246 244 233 245 255 241 270 283 291 292 274 276 265 259 253 240 221 202 182 173 166 160 154 150 149 150 145 146 144 144 146 153 151 146 144 143 143 142 141 143 142 143 141 170
Wind_Speed_850mb
25 20 30 37 37 38 38 31 33 24 8 12 34 41 40 42 36 41 49 53 55 58 53 54 57 59 59 57 56 54 51 48 46 43 39 36 33 30 27 25 23 22 22 22
11 32 30 14 18 30 32 37 40 36 11 10 33 48 43 41 48 58 58 57 62 56 59 63 68 72 70 66 62 59 55 53 50 46 43 39 36 33 30 27 25 24 23 23
28 3 10 8 19 22 33 36 36 35 10 26 30 47 47 43 61 65 64 66 62 70 73 75 84 85 77 75 71 65 61 57 54 51 49 44 41 35 34 32 29 28 27 27
23 4 9 11 22 24 29 19 24 30 13 17 8 26 32 28 21 30 55 63 73 77 80 82 91 89 87 82 73 69 65 60 59 57 52 47 42 40 37 35 34 32 32 31
7 9 14 21 11 17 3 6 9 20 24 26 32 16 15 23 31 36 39 65 73 75 77 83 93 92 87 81 80 74 69 65 64 60 56 51 46 41 41 40 38 36 35 33
4 1 5 3 5 1 6 4 5 7 12 15 31 30 38 29 28 31 29 51 64 67 71 72 75 80 84 83 81 78 75 70 69 66 63 57 52 50 46 43 42 40 38 36
10 14 8 5 8 5 14 11 7 9 10 16 1 22 37 21 36 18 22 28 32 53 66 72 77 85 86 89 88 83 80 77 74 72 68 62 57 50 47 45 45 44 43 40
14 11 19 18 6 8 26 13 10 14 17 20 5 17 13 17 32 31 28 24 24 39 61 72 80 90 93 94 91 88 86 81 79 77 73 66 59 55 51 48 47 45 43 42
13 7 7 3 2 4 14 15 5 10 4 10 18 32 17 28 30 25 28 17 24 29 46 62 67 78 88 95 93 92 88 83 80 79 75 71 65 61 57 51 49 45 43 43
1 5 1 7 3 5 5 5 7 8 9 15 17 16 20 24 26 13 16 16 25 31 41 58 67 73 82 89 91 88 86 85 81 77 76 73 68 63 57 53 51 47 45 42
2 1 8 4 18 19 10 9 9 5 9 10 17 12 6 10 11 18 22 30 32 24 31 46 58 64 71 83 88 90 88 84 81 76 75 73 69 65 62 57 53 52 49 45
9 2 8 11 7 5 5 11 19 10 12 12 12 21 21 25 8 9 16 14 23 13 16 31 49 60 68 77 86 92 89 83 79 74 75 75 71 68 66 64 57 55 52 48
17 7 7 8 3 2 10 15 16 16 7 28 17 15 5 3 10 13 9 16 20 21 9 25 38 56 68 77 85 89 89 84 79 75 75 75 74 70 69 65 60 58 55 51
14 9 13 20 8 7 8 13 25 20 15 24 42 49 43 41 41 43 61 68 44 16 17 29 42 51 60 72 79 86 86 84 82 79 74 73 74 71 68 64 61 58 55 51
4 10 8 20 25 11 14 16 21 31 40 27 43 50 37 29 27 37 51 59 44 33 32 38 50 58 60 69 77 80 83 87 86 80 75 72 71 68 64 63 61 57 54 51
3 14 5 10 23 24 29 31 27 43 43 49 49 71 45 59 69 67 74 71 60 51 48 46 50 65 74 75 78 79 81 82 83 81 77 73 67 64 63 61 58 56 54 52
13 11 8 13 4 16 29 40 48 43 37 46 45 69 40 46 46 54 65 59 53 56 53 52 55 64 73 78 80 82 83 82 81 80 76 72 66 63 62 58 55 54 53 52
12 17 9 5 4 17 2 4 15 40 43 40 52 58 52 55 76 70 58 51 57 62 60 58 49 53 65 74 72 77 77 80 79 79 75 71 67 63 60 57 55 55 54 50
21 18 8 10 19 25 33 20 15 16 22 37 45 49 45 58 49 56 53 44 47 49 48 43 38 45 53 63 63 68 70 70 71 73 72 69 67 65 63 61 57 54 50 47
7 17 16 11 12 18 5 6 16 9 16 25 24 34 31 15 12 17 22 24 23 23 16 20 29 38 43 54 61 67 70 71 71 71 68 65 63 61 60 58 56 51 46 43
11 10 30 31 24 18 11 14 15 6 9 2 1 8 18 11 12 21 25 22 18 11 6 13 21 31 37 49 60 67 68 67 65 63 60 58 56 57 56 55 50 47 44 40
22 25 15 19 15 35 22 16 18 5 4 7 8 20 15 19 26 23 22 15 10 5 7 14 23 31 39 45 52 58 59 57 56 55 54 55 55 54 53 50 48 43 40 37
12 19 12 22 16 3 22 32 40 24 23 23 21 26 31 27 22 18 15 11 8 8 12 19 26 31 34 37 42 52 51 51 54 55 58 58 57 55 52 49 48 44 38 32
12 12 10 7 27 32 36 42 48 49 58 54 49 38 34 28 25 19 17 13 12 15 20 26 33 40 43 43 46 44 53 54 56 60 60 59 57 57 52 48 42 37 32 26
19 15 16 22 35 31 59 50 47 53 63 69 72 54 36 31 27 22 20 20 21 25 32 38 44 50 55 54 52 53 55 57 61 62 63 61 57 52 49 43 36 28 21 13
32 30 22 23 25 18 40 45 52 44 48 57 55 51 36 32 29 28 25 27 31 37 44 49 51 54 61 60 62 62 59 55 59 64 62 58 55 50 42 34 30 21 11 2
Wind_Direction_850mb
200 216 218 225 228 250 274 278 267 273 117 255 241 254 258 249 216 229 229 222 218 215 208 204 204 205 207 207 209 209 207 205 202 198 195 193 191 188 184 177 171 166 162 158
191 231 239 243 282 244 254 256 261 270 167 222 275 270 265 257 243 229 230 224 220 215 208 205 208 210 210 209 209 208 207 207 202 199 194 193 192 187 185 178 174 169 163 158
229 120 62 203 231 236 242 250 259 264 277 238 276 275 258 249 238 238 230 231 223 213 205 202 210 211 210 210 210 209 208 207 203 200 198 195 193 191 186 181 178 172 167 162
244 145 178 199 234 226 253 258 257 264 256 263 169 290 285 293 237 227 228 226 223 213 209 205 210 207 210 211 210 210 209 207 204 203 200 198 197 193 190 188 183 178 176 169
188 192 200 225 241 188 270 12 250 262 258 276 255 263 284 258 256 239 228 227 223 217 208 202 212 213 211 209 210 209 209 207 206 204 201 197 196 195 196 193 187 184 182 176
315 41 246 46 87 18 104 139 193 234 258 253 242 239 276 256 254 248 250 235 225 217 210 207 210 207 208 210 209 209 208 207 206 204 202 199 198 201 199 195 192 190 188 184
176 206 142 192 161 151 200 189 227 235 211 251 321 243 246 299 292 257 265 274 227 217 208 203 199 200 203 207 207 208 208 207 206 204 203 201 201 203 203 201 199 197 194 192
201 219 182 163 243 200 193 218 237 255 246 283 115 240 254 251 285 277 276 267 253 216 210 206 201 202 204 208 208 207 207 207 206 205 204 204 204 204 204 204 204 202 200 198
189 182 123 68 343 305 161 215 14 311 152 270 247 253 256 249 262 276 274 275 257 238 216 210 205 201 202 209 209 208 207 207 208 207 206 206 206 206 205 207 207 205 204 205
256 188 29 110 203 202 280 344 169 211 248 252 248 261 255 279 278 21 15 313 268 240 219 209 204 201 205 212 210 209 210 209 209 209 209 210 210 210 209 211 211 211 212 212
73 270 112 161 202 190 172 211 221 290 251 263 284 266 11 344 35 344 338 327 326 278 238 212 203 201 200 210 209 208 209 208 209 210 210 212 213 212 213 214 214 216 217 215
174 112 228 209 96 8 338 236 193 224 210 239 287 258 290 291 321 294 299 320 351 328 254 219 204 196 196 206 208 207 207 208 210 210 210 211 212 213 213 215 216 217 218 218
167 202 227 197 187 22 222 208 231 257 296 246 264 250 137 213 308 287 293 350 346 339 235 213 210 202 197 202 205 207 208 209 210 210 211 211 213 213 215 216 217 218 219 219
167 182 243 247 57 76 203 215 224 222 248 263 242 270 270 284 291 295 303 301 316 288 272 217 210 213 206 203 205 207 207 209 211 211 211 212 213 215 216 216 218 219 219 221
206 229 217 260 268 226 241 222 204 216 233 245 270 272 272 281 289 295 294 291 292 279 270 248 218 208 210 209 209 209 211 211 212 211 211 213 214 215 215 216 218 219 219 220
68 218 124 263 256 244 254 243 233 242 240 257 265 270 265 273 276 271 273 274 277 274 262 265 245 230 219 215 213 210 209 210 210 211 211 212 212 212 213 215 216 216 218 219
169 198 181 252 346 290 270 242 228 243 240 238 252 258 282 274 269 268 275 279 277 275 271 259 258 247 230 221 213 211 208 211 209 209 209 210 210 209 211 212 212 212 214 216
167 195 193 254 148 250 354 117 223 233 249 242 252 262 266 266 274 280 287 291 283 277 275 271 267 244 232 223 216 214 212 211 208 206 206 207 207 207 207 206 206 207 212 216
186 180 200 222 211 284 296 258 189 186 255 232 246 258 268 274 278 287 279 279 271 275 276 273 266 237 227 218 211 207 203 202 200 200 202 203 205 204 204 204 205 207 209 209
227 209 208 180 232 246 96 43 118 146 269 254 234 255 272 297 269 287 330 316 305 295 274 233 221 214 211 207 203 198 194 193 193 195 197 201 202 202 200 199 199 200 200 201
175 198 214 223 241 269 212 159 151 208 279 146 284 273 279 240 254 289 305 312 320 312 249 208 191 189 187 188 190 188 186 187 189 191 192 191 191 192 193 191 190 190 188 188
172 177 197 218 236 254 159 126 216 213 188 252 284 306 289 268 274 278 288 294 290 262 185 179 178 173 174 179 182 176 174 175 177 177 176 175 176 177 175 179 173 173 175 176
220 214 194 205 214 275 192 221 225 274 292 292 284 290 295 290 276 263 265 256 234 194 178 173 171 166 163 167 170 168 161 163 164 164 161 162 162 161 161 164 163 163 164 166
222 216 241 156 247 256 259 247 251 263 271 280 284 285 281 273 262 242 227 211 186 167 159 158 157 156 151 153 156 162 156 156 157 154 151 151 153 152 152 154 154 156 156 160
262 155 216 254 265 285 273 263 267 266 271 269 270 271 266 254 242 223 195 181 170 161 153 153 153 150 145 149 148 148 149 154 153 150 147 146 146 145 144 143 142 145 146 156
246 244 233 245 255 241 270 283 291 292 274 276 265 259 253 240 221 202 182 173 166 160 154 150 149 150 145 146 144 144 146 153 151 146 144 143 143 142 141 143 142 143 141 170